Date String (YYYY-MM-DD hh:mm:ss) UTC,Instrument flags,absolute air pressure of the measurement (hPa),sample flow rate (lpm),inlet stack bypass flow (lpm),air temperature of the measurement (°C),ambient temperature measured by the external sensor (°C),aerosol sample conditioner tube jacket temperature (°C),OPC LED temperature (°C),internal box temperature (°C),relative humidity of the measurement (%),span deviation,mass concentration of particles derived from Lorenz-Mie calculation of OPC scattering (μg/m³),mass concentration of particles derived from Lorenz-Mie calculation of OPC scattering (μg/m³),mass concentration of particles derived from Lorenz-Mie calculation of OPC scattering (μg/m³)
DateTimeUTC,F1_M11,P_M11,Q1_M11,Q2_M11,T1_M11,T2_M11,T3_M11,T4_M11,T5_M11,U1_M11,ZSPAN_M11,X0_M11,X2_M11,X1_M11
2024-04-23 10:00:00,SystemResetWarning,0829.5,4.99,000.00,025.9,025.1,000.0,034.5,027.7,012.7,0000.0,0011.66,0003.17,0001.66
2024-04-23 10:01:00,SystemResetWarning,0829.5,5.00,000.00,025.9,025.1,000.0,034.5,027.7,012.8,0000.0,0011.77,0003.15,0001.65
2024-04-23 10:02:00,SystemResetWarning,0829.4,5.01,000.00,025.9,025.1,000.0,034.5,027.7,012.5,0000.0,0011.70,0003.17,0001.65
2024-04-23 10:03:00,SystemResetWarning,0829.4,5.01,000.00,025.9,025.0,000.0,034.5,027.7,012.2,0000.0,0011.94,0003.18,0001.62
2024-04-23 10:04:00,SystemResetWarning,0829.4,5.01,000.00,025.8,025.0,000.0,034.5,027.7,012.2,0000.0,0011.79,0003.17,0001.63
2024-04-23 10:05:00,SystemResetWarning,0829.5,5.00,000.00,025.8,025.0,000.0,034.5,027.7,012.3,0000.0,0012.54,0003.18,0001.62
2024-04-23 10:06:00,SystemResetWarning,0829.5,4.99,000.00,025.8,025.0,000.0,034.5,027.7,012.3,0000.0,0012.82,0003.16,0001.61
2024-04-23 10:07:00,SystemResetWarning,0829.6,5.00,000.00,025.8,025.0,000.0,034.5,027.7,012.3,0000.0,0012.95,0003.15,0001.60
2024-04-23 10:08:00,SystemResetWarning,0829.6,5.00,000.00,025.8,025.0,000.0,034.5,027.7,012.1,0000.0,0011.46,0003.13,0001.60
2024-04-23 10:09:00,SystemResetWarning,0829.7,5.01,000.00,025.8,025.0,000.0,034.5,027.7,012.0,0000.0,0010.98,0003.11,0001.57
2024-04-23 10:10:00,SystemResetWarning,0829.6,5.00,000.00,025.8,024.9,000.0,034.5,027.7,012.1,0000.0,0011.40,0003.15,0001.56
2024-04-23 10:11:00,SystemResetWarning,0829.7,5.00,000.00,025.8,024.9,000.0,034.5,027.7,012.0,0000.0,0011.24,0003.16,0001.56
2024-04-23 10:12:00,SystemResetWarning,0829.7,5.00,000.00,025.8,025.0,000.0,034.5,027.7,011.9,0000.0,0011.13,0003.16,0001.55
2024-04-23 10:13:00,SystemResetWarning,0829.8,5.00,000.00,025.8,025.0,000.0,034.4,027.7,012.0,0000.0,0010.97,0003.18,0001.53
2024-04-23 10:14:00,SystemResetWarning,0829.7,5.00,000.00,025.8,025.0,000.0,034.4,027.7,012.1,0000.0,0010.07,0003.15,0001.53
2024-04-23 10:15:00,SystemResetWarning,0829.7,4.99,000.00,025.8,025.0,000.0,034.4,027.7,012.0,0000.0,0010.21,0003.13,0001.52
2024-04-23 10:16:00,SystemResetWarning,0829.7,4.99,000.00,025.8,025.0,000.0,034.4,027.7,011.9,0000.0,0010.21,0003.08,0001.51
2024-04-23 10:17:00,SystemResetWarning,0829.7,4.99,000.00,025.8,025.0,000.0,034.4,027.7,011.6,0000.0,0010.60,0003.09,0001.52
2024-04-23 10:18:00,SystemResetWarning,0829.7,5.00,000.00,025.8,025.0,000.0,034.4,027.7,011.6,0000.0,0010.67,0003.12,0001.52
2024-04-23 10:19:00,SystemResetWarning,0829.7,5.00,000.00,025.8,025.0,000.0,034.4,027.7,011.8,0000.0,0010.75,0003.13,0001.51
2024-04-23 10:20:00,SystemResetWarning,0829.8,5.00,000.00,025.8,024.9,000.0,034.4,027.6,011.9,0000.0,0010.64,0003.11,0001.51
2024-04-23 10:21:00,SystemResetWarning,0829.8,5.01,000.00,025.8,024.9,000.0,034.4,027.6,011.8,0000.0,0010.48,0003.09,0001.50
2024-04-23 10:22:00,SystemResetWarning,0829.8,5.00,000.00,025.8,024.9,000.0,034.4,027.6,011.7,0000.0,0009.79,0003.06,0001.49
2024-04-23 10:23:00,SystemResetWarning,0829.7,4.99,000.00,025.8,024.9,000.0,034.4,027.6,011.6,0000.0,0010.34,0003.10,0001.50
2024-04-23 10:24:00,SystemResetWarning,0829.7,5.00,000.00,025.8,024.9,000.0,034.4,027.6,011.7,0000.0,0010.30,0003.08,0001.50
2024-04-23 10:25:00,SystemResetWarning,0829.8,5.00,000.00,025.8,024.9,000.0,034.4,027.6,011.7,0000.0,0010.52,0003.13,0001.50
2024-04-23 10:26:00,SystemResetWarning,0829.8,5.00,000.00,025.8,024.9,000.0,034.4,027.7,011.7,0000.0,0011.37,0003.16,0001.52
2024-04-23 10:27:00,SystemResetWarning,0829.9,5.00,000.00,025.8,024.9,000.0,034.4,027.6,011.8,0000.0,0010.71,0003.19,0001.52
2024-04-23 10:28:00,SystemResetWarning,0830.0,5.00,000.00,025.8,025.0,000.0,034.4,027.6,011.8,0000.0,0011.07,0003.24,0001.52
2024-04-23 10:29:00,SystemResetWarning,0830.0,5.00,000.00,025.8,024.9,000.0,034.4,027.6,011.8,0000.0,0011.57,0003.25,0001.53
2024-04-23 10:30:00,SystemResetWarning,0830.0,5.00,000.00,025.8,024.9,000.0,034.4,027.6,011.9,0000.0,0011.61,0003.25,0001.52
2024-04-23 10:31:00,SystemResetWarning,0830.1,5.00,000.00,025.7,024.9,000.0,034.4,027.6,011.8,0000.0,0011.31,0003.27,0001.52
2024-04-23 10:32:00,SystemResetWarning,0830.0,5.00,000.00,025.7,024.9,000.0,034.4,027.6,011.8,0000.0,0011.10,0003.24,0001.52
2024-04-23 10:33:00,SystemResetWarning,0830.0,5.00,000.00,025.7,024.9,000.0,034.4,027.6,011.8,0000.0,0011.07,0003.23,0001.51
2024-04-23 10:34:00,SystemResetWarning,0830.0,5.00,000.00,025.7,024.9,000.0,034.4,027.6,011.5,0000.0,0010.58,0003.22,0001.52
2024-04-23 10:35:00,SystemResetWarning,0830.0,4.99,000.00,025.7,024.9,000.0,034.4,027.6,011.6,0000.0,0010.64,0003.22,0001.52
2024-04-23 10:36:00,SystemResetWarning,0830.1,5.00,000.00,025.7,024.9,000.0,034.4,027.6,011.4,0000.0,0010.65,0003.20,0001.51
2024-04-23 10:37:00,SystemResetWarning,0830.1,5.00,000.00,025.7,024.9,000.0,034.4,027.6,011.5,0000.0,0009.62,0003.15,0001.50
2024-04-23 10:38:00,SystemResetWarning,0830.1,5.00,000.00,025.7,024.9,000.0,034.4,027.6,011.6,0000.0,0009.49,0003.10,0001.49
2024-04-23 10:39:00,SystemResetWarning,0830.0,5.00,000.00,025.7,024.9,000.0,034.3,027.6,011.1,0000.0,0008.49,0003.01,0001.47
2024-04-23 10:40:00,SystemResetWarning,0830.1,5.00,000.00,025.7,024.9,000.0,034.3,027.6,011.3,0000.0,0007.99,0002.97,0001.47
2024-04-23 10:41:00,SystemResetWarning,0830.1,5.00,000.00,025.7,024.9,000.0,034.3,027.6,011.4,0000.0,0007.89,0002.99,0001.47
2024-04-23 10:42:00,SystemResetWarning,0830.2,5.01,000.00,025.7,024.9,000.0,034.3,027.6,011.4,0000.0,0009.29,0002.99,0001.46
2024-04-23 10:43:00,SystemResetWarning,0830.2,4.99,000.00,025.7,024.9,000.0,034.3,027.5,011.4,0000.0,0009.78,0003.01,0001.46
2024-04-23 10:44:00,SystemResetWarning,0830.2,5.00,000.00,025.7,024.9,000.0,034.3,027.6,011.4,0000.0,0009.79,0003.05,0001.44
2024-04-23 10:45:00,SystemResetWarning,0830.3,5.00,000.00,025.7,024.9,000.0,034.3,027.5,011.4,0000.0,0009.62,0003.04,0001.43
2024-04-23 10:46:00,SystemResetWarning,0830.2,5.00,000.00,025.7,024.9,000.0,034.3,027.5,011.3,0000.0,0009.50,0003.00,0001.42
2024-04-23 10:47:00,SystemResetWarning,0830.2,5.01,000.00,025.7,024.8,000.0,034.3,027.5,011.2,0000.0,0009.22,0002.99,0001.42
2024-04-23 10:48:00,SystemResetWarning,0830.1,5.00,000.00,025.7,024.8,000.0,034.3,027.5,011.4,0000.0,0009.84,0003.00,0001.42
2024-04-23 10:49:00,SystemResetWarning,0830.1,5.00,000.00,025.7,024.8,000.0,034.3,027.5,011.5,0000.0,0010.54,0003.13,0001.45
2024-04-23 10:50:00,SystemResetWarning,0830.2,5.00,000.00,025.7,024.8,000.0,034.3,027.5,011.2,0000.0,0011.19,0003.19,0001.44
2024-04-23 10:51:00,SystemResetWarning,0830.3,5.00,000.00,025.7,024.8,000.0,034.3,027.5,011.4,0000.0,0011.63,0003.22,0001.43
2024-04-23 10:52:00,SystemResetWarning,0830.3,5.00,000.00,025.7,024.8,000.0,034.3,027.5,011.4,0000.0,0012.11,0003.20,0001.44
2024-04-23 10:53:00,SystemResetWarning,0830.4,5.00,000.00,025.6,024.8,000.0,034.3,027.5,011.6,0000.0,0011.12,0003.21,0001.44
2024-04-23 10:54:00,SystemResetWarning,0830.4,5.00,000.00,025.6,024.8,000.0,034.3,027.5,011.5,0000.0,0010.42,0003.23,0001.46
2024-04-23 10:55:00,SystemResetWarning,0830.4,5.00,000.00,025.6,024.8,000.0,034.3,027.5,011.7,0000.0,0010.38,0003.23,0001.47
2024-04-23 10:56:00,SystemResetWarning,0830.4,5.00,000.00,025.6,024.8,000.0,034.3,027.5,011.5,0000.0,0010.81,0003.22,0001.48
2024-04-23 10:57:00,SystemResetWarning,0830.4,5.00,000.00,025.6,024.8,000.0,034.3,027.5,011.6,0000.0,0011.15,0003.24,0001.49
2024-04-23 10:58:00,SystemResetWarning,0830.4,5.00,000.00,025.6,024.8,000.0,034.3,027.5,011.5,0000.0,0011.60,0003.26,0001.52
2024-04-23 10:59:00,SystemResetWarning,0830.4,5.00,000.00,025.6,024.8,000.0,034.3,027.5,011.3,0000.0,0011.23,0003.29,0001.53
